Regional Weather Roundup
Issued by NWS Jackson, KY

Home | Current Version | Previous Version | Graphics & Text | Print | Product List | Glossary On
Versions: 1 2 3 4 5 6 7 8 9 10 11 12 13 14 15 16 17 18 19 20 21 22 23 24 25 26 27 28 29 30 31 32 33 34 35 36 37 38 39 40 41 42 43 44 45 46 47 48 49 50
000
ASUS43 KJKL 200410
RWRJKL

EAST KENTUCKY HOURLY WEATHER ROUNDUP
NATIONAL WEATHER SERVICE JACKSON KY
1200 AM EDT FRI APR 20 2018

NOTE: "FAIR" INDICATES FEW OR NO CLOUDS BELOW 12,000 FEET WITH
NO SIGNIFICANT WEATHER AND/OR OBSTRUCTIONS TO VISIBILITY.

* THESE REPORTS ARE NOT UNDER NWS QUALITY CONTROL AND MAY NOT
  REPORT WEATHER SUCH AS PRECIPITATION AND FOG.

KYZ079-080-083-085-087-088-110-112-115-119-120-200500
...EASTERN KENTUCKY...

CITY           SKY/WX    TMP DP  RH WIND       PRES   REMARKS
JACKSON          N/A     38  28  67 CALM      30.32S
LONDON           N/A     36  31  82 CALM      30.34R
SOMERSET*        N/A     34  32  93 CALM      30.37R
MONTICELLO*      N/A     30  28  92 VRB3      30.37F
WILLIAMSBURG*    N/A     36  32  87 CALM      30.35S
MIDDLESBORO*     N/A     35  32  88 CALM      30.36R
HARLAN APT*      N/A     36  29  75 CALM      30.33S
PIKE CO APT*     N/A     40  29  65 CALM      30.31S
MOREHEAD APT*    N/A     37  28  70 S3        30.33S
ASHLAND*         N/A     37  35  92 CALM      30.31S
$$

KYZ035-036-041-042-044-050-067-078-099-200500
...CENTRAL KENTUCKY...

CITY           SKY/WX    TMP DP  RH WIND       PRES   REMARKS
MT STERLING*     N/A     36  32  87 W5        30.34S WCI  32
FLEMING/MASON*   N/A     41  29  62 W5        30.32S
DANVILLE*        N/A     34  32  93 CALM      30.35S
LEXINGTON        N/A     41  30  65 SW3       30.33S
FRANKFORT        N/A     37  30  75 CALM      30.32S
LOUISVILLE       N/A     46  31  55 NW5       30.35R
GLASGOW*         N/A     34  32  90 W3        30.36S
BOWLING GREEN    N/A     42  33  70 CALM      30.37S
$$

KYZ091>093-OHZ055-061-077-WVZ005-015-034-035-042-200500
...SOUTHERN OHIO/WEST VIRGINIA...

CITY           SKY/WX    TMP DP  RH WIND       PRES   REMARKS
COVINGTON        N/A     44  26  49 NW9       30.32S
COLUMBUS         N/A     46  30  53 NW13      30.28R
DAYTON           N/A     41  33  73 NW12      30.33R
WILMINGTON       N/A     43  31  62 NW10      30.31R
HUNTINGTON       N/A     39  29  67 SW6       30.29F WCI  35
CHARLESTON       N/A     38  32  79 SW3       30.28R
PINEVILLE*       N/A     32  30  92 MISG        N/A
BECKLEY          N/A     33  25  72 W6        30.24R WCI  28
BLUEFIELD        N/A     33  24  69 W6        30.25R WCI  28
LOGAN CO APT*    N/A     39  28  65 CALM      30.28F
$$

VAZ002-007-008-TNZ017-027-036-066-071-200500
...SOUTHWEST VIRGINIA/EAST TENNESSEE...

CITY           SKY/WX    TMP DP  RH WIND       PRES   REMARKS
WISE*            N/A     36  30  80 NW3       30.30S
JONESVILLE*      N/A     34  32  93 CALM      30.36R
ABINGDON*      CLOUDY    40  29  63 N3        30.30S
BRISTOL          N/A     35  29  78 NW3       30.32R
MORRISTOWN*    CLEAR     41  28  60 N3        30.32S
SEVIERVILLE*   CLEAR     39  30  70 CALM      30.34R
KNOXVILLE        N/A     39  30  70 NE7       30.32R WCI  34
LAFOLLETTE*    CLEAR     36  30  80 CALM      30.38R
OAK RIDGE        N/A     42  31  64 E3        30.35R
CROSSVILLE       N/A     37  28  70 NE6       30.32S WCI  32
NASHVILLE        N/A     42  32  67 N7        30.36S
$$

...KEY TO REMARKS...
VSB - VISIBILITY IN MILES
WCI - WIND CHILL INDEX
HX  - HEAT INDEX

$$



USA.gov is the U.S. government's official web portal to all federal, state and local government web resources and services.